Flag for Germany Weather past 2 weeks in Sankt Augustin, North Rhine-Westphalia, Germany

Now
43 °F

Passing clouds.


Feels Like: 43 °F
Forecast: 32 / 48 °F
Wind: 1 mph from Southwest

Location: Koeln / Bonn

Current Time: Mar 5, 2015 at 7:49:46 PM

Latest Report: Mar 5, 2015 at 7:20 PM


Visibility: N/A

Pressure: 30.63 "Hg

Humidity: 71%

Dew point: 34 °F

Location of Sankt AugustinLocation

Historic Weather in Sankt Augustin — Graph

°F

Sankt Augustin temperature yesterday

Maximum temperature yesterday: 46 °F (at 3:20 PM)
Minimum temperature yesterday: 34 °F (at 5:50 AM)
Average temperature yesterday: 39 °F

Past Weeks' High & Low Weather Summary

 TemperatureHumidityPressure
High54 °F (Mar 1, 1:20 PM)100% (Feb 23, 6:20 AM)30.66 "Hg (Feb 23, 6:20 AM)
Low28 °F (Feb 28, 4:20 AM)40% (Feb 28, 3:50 PM)29.39 "Hg (Feb 21, 4:20 AM)
Average40 °F78%29.95 "Hg
* Reported Feb 18 6:20 PM — Mar 5 6:20 PM, Sankt Augustin, Weather by CustomWeather, © 2015

Note: Actual official high and low records may vary slightly from our data, if they occured in-between our weather recording intervals... More about our weather records

Advertising

Sankt Augustin weather history for previous 24 hours

 ConditionsComfort  
Time TempWeatherWind HumidityBarometerVisibility
6:20 PM
Thu, Mar 5
45 °FPassing clouds.3 mph66%30.63 "HgN/A
5:50 PM45 °FBroken clouds.3 mph66%30.63 "HgN/A
5:20 PM45 °FBroken clouds.5 mph66%30.63 "HgN/A
4:50 PM45 °FBroken clouds.7 mph66%30.63 "HgN/A
4:20 PM45 °FPartly sunny.5 mph61%30.63 "HgN/A
3:50 PM46 °FBroken clouds.7 mph62%30.63 "HgN/A
3:20 PM45 °FPartly sunny.7 mph66%30.63 "HgN/A
2:50 PM45 °FBroken clouds.5 mph66%30.63 "HgN/A
2:20 PM45 °FBroken clouds.7 mph66%30.63 "HgN/A
1:50 PM43 °FBroken clouds.9 mph76%30.63 "HgN/A
1:20 PM43 °FPartly sunny.7 mph76%30.66 "HgN/A
12:50 PM41 °FPartly sunny.9 mph81%30.66 "HgN/A
12:20 PM41 °FBroken clouds.9 mph81%30.66 "HgN/A
11:50 AM41 °FBroken clouds.12 mph81%30.66 "HgN/A
11:20 AM41 °FPartly sunny.9 mph81%30.66 "HgN/A
10:50 AM41 °FPartly sunny.8 mph81%30.66 "HgN/A
10:20 AM41 °FBroken clouds.8 mph87%30.66 "HgN/A
9:50 AM39 °FBroken clouds.9 mph93%30.66 "Hg6 mi
9:20 AM39 °FPartly sunny.7 mph87%30.66 "Hg6 mi
8:50 AM39 °FPartly sunny.6 mph87%30.63 "Hg6 mi
8:20 AM37 °FPartly sunny.8 mph93%30.63 "HgN/A
7:50 AM37 °FPartly sunny.7 mph93%30.63 "HgN/A
7:20 AM37 °FPartly sunny.8 mph93%30.60 "HgN/A
6:50 AM37 °FPassing clouds.8 mph93%30.60 "HgN/A
6:20 AM36 °FPassing clouds.9 mph93%30.60 "HgN/A
5:20 AM37 °FPassing clouds.6 mph87%30.60 "HgN/A
4:20 AM39 °FPartly cloudy.12 mph87%30.57 "HgN/A
3:50 AM39 °FPartly cloudy.10 mph87%30.57 "HgN/A
2:50 AM39 °FPartly cloudy.9 mph87%30.54 "HgN/A
2:20 AM39 °FPartly cloudy.10 mph87%30.54 "HgN/A
1:50 AM39 °FPartly cloudy.10 mph87%30.54 "HgN/A
1:20 AM39 °FScattered showers. Passing clouds.8 mph81%30.51 "HgN/A
12:50 AM39 °FScattered showers. Partly cloudy.14 mph81%30.51 "HgN/A
12:20 AM39 °FSprinkles. Partly cloudy.14 mph87%30.48 "HgN/A
11:50 PM
Wed, Mar 4
39 °FScattered showers. Partly cloudy.15 mph87%30.48 "HgN/A
11:20 PM39 °FScattered showers. Passing clouds.15 mph87%30.48 "HgN/A
10:20 PM41 °FSprinkles. Partly cloudy.16 mph81%30.45 "HgN/A
9:50 PM39 °FSprinkles. Passing clouds.9 mph87%30.42 "HgN/A
9:20 PM39 °FSprinkles. Passing clouds.6 mph87%30.42 "HgN/A
8:50 PM37 °FSprinkles. Passing clouds.5 mph93%30.39 "HgN/A
8:20 PM37 °FSprinkles. Partly cloudy.7 mph93%30.39 "HgN/A
7:50 PM39 °FSprinkles. Partly cloudy.16 mph87%30.39 "HgN/A
7:20 PM41 °FSprinkles. Partly cloudy.14 mph76%30.36 "HgN/A
Weather by CustomWeather, © 2015

See weather overviewHow to use our weather pages